Regional Weather Roundup
Issued by NWS

Home | Current Version | Previous Version | Text Only | Print | Product List | Glossary Off
Versions: 1 2 3 4 5 6 7 8 9 10 11 12 13 14 15 16 17 18 19 20 21 22 23 24 25 26 27 28 29 30 31 32 33 34 35 36 37 38 39 40 41 42 43 44 45 46 47 48 49 50

000
ASUS43 KLSX 021059
RWRMO

WEATHER SUMMARY FOR MISSOURI
NATIONAL WEATHER SERVICE SPRINGFIELD MO
500 AM CST MON MAR 02 2015

NOTE: "FAIR" INDICATES FEW OR NO CLOUDS BELOW 12,000 FEET WITH NO
       SIGNIFICANT WEATHER AND/OR OBSTRUCTIONS TO VISIBILITY.
       CURRENT SKY AND/OR WEATHER CONDITIONS ARE NOT AVAILABLE FOR
       CHILLICOTHE AND FARMINGTON.

MOZ001>031-035>038-043-044-053-054-021200-
...NORTHERN AND WESTERN MISSOURI...

CITY           SKY/WX    TMP DP  RH WIND       PRES   REMARKS
KANSAS CTY INT PTCLDY    21  18  88 CALM      30.47F
KANSAS C DTWN  PTCLDY    22  19  89 CALM      30.50S
LEE`S SUMMIT   PTCLDY    25  20  81 E5        30.47F WCI  19
ST JOSEPH      PTCLDY    25  21  85 CALM      30.49S
CHILLICOTHE      N/A     20  16  84 CALM      30.51S
KIRKSVILLE     MOCLDY    19  17  92 W5        30.50R WCI  12

$$
MOZ066>068-077>081-088>096-101>105-021200-
...SOUTHWEST MISSOURI...

CITY           SKY/WX    TMP DP  RH WIND       PRES   REMARKS
SPRINGFIELD    PTCLDY    22  17  81 NE6       30.45S WCI  14
JOPLIN         MOCLDY    21  17  84 NE5       30.47S FOG     WCI  15

$$
MOZ032>034-039>042-045>050-055>058-069>072-021200-
...CENTRAL MISSOURI...

CITY           SKY/WX    TMP DP  RH WIND       PRES   REMARKS
COLUMBIA       MOCLDY    20  17  88 W3        30.51R FOG
JEFFERSON CITY FOG       11   9  92 CALM      30.54S VSB 1/4
ROLLA          FOG       13   9  84 CALM      30.47R VSB 1/4
SEDALIA        PTCLDY    17  14  88 SW6       30.51S FOG     WCI   9
WHITEMAN AFB   PTCLDY     9   6  87 SW5       30.50S WCI   0
OSAGE BEACH    PTCLDY    12  10  92 CALM      30.50S

$$
MOZ051-052-059>065-021200-
...EAST CENTRAL MISSOURI...

CITY           SKY/WX    TMP DP  RH WIND       PRES   REMARKS
ST LOUIS INTL  PTCLDY    18  14  84 SW3       30.53R FOG
SPIRIT OF STL  PTCLDY     7   4  87 SW3       30.53R
ST CHARLES     FOG        7   6  96 CALM      30.54R VSB 1/4

$$
MOZ072>076-082>087-097>100-106>115-021200-
...SOUTH CENTRAL AND SOUTHEAST MISSOURI...

CITY           SKY/WX    TMP DP  RH WIND       PRES   REMARKS
CAPE GIRARDEAU PTCLDY    28  21  75 N14       30.52S WCI  17
FARMINGTON     PTCLDY    21  18  86 CALM      30.52S
POPLAR BLUFF   MOCLDY    30  20  66 N8        30.50R WCI  22
WEST PLAINS    PTCLDY    23  19  85 NE6       30.47R WCI  16

$$



USA.gov is the U.S. government's official web portal to all federal, state and local government web resources and services.